Flight Track Log - Related Links

Times and Time Zones

All times are in EDT time to prevent confusion due to time zone crossing. See the DAL1755 flight status page for this flight to view local times or setup timezone preferences in your user account.

Time Position Orientation Groundspeed Altitude Reporting Facility
EDT Latitude Longitude Course Direction KTS MPH feet Rate Location/Type
Fri 12:49:19 PM 33.6500 -84.3833 270° West 161 185 2,900  Level Atlanta TRACON
Fri 12:50:25 PM 33.6667 -84.3167 73° East 231 266 4,900 2,100 Climbing Atlanta TRACON
Fri 12:51:19 PM 33.7167 -84.2667 40° Northeast 274 315 7,100 2,246 Climbing Atlanta TRACON
Fri 12:52:00 PM 33.8000 -84.5166 270° West  Level FlightAware Approximate
Fri 12:53:00 PM 33.8000 -84.6580 270° West  Level FlightAware Approximate
Fri 12:53:32 PM 33.8103 -84.4214 306° West 294 338 11,900  Level Atlanta Center
Fri 12:54:00 PM 33.8001 -84.7995 270° West  Level FlightAware Approximate
Fri 12:54:32 PM 33.8100 -84.5539 270° West 366 421 14,000  Level Atlanta Center
Fri 12:55:32 PM 33.8114 -84.6814 271° West 379 436 16,300 2,050 Climbing Atlanta Center
Fri 12:56:32 PM 33.8086 -84.8139 269° West 394 453 18,100 1,700 Climbing Atlanta Center
Fri 12:57:32 PM 33.8036 -84.9414 267° West 420 483 19,700 1,650 Climbing Atlanta Center
Fri 12:58:32 PM 33.7856 -85.0836 261° West 426 490 21,400 1,650 Climbing Atlanta Center
Fri 12:59:32 PM 33.7717 -85.2383 264° West 431 496 23,000 1,600 Climbing Atlanta Center
Fri 01:00:32 PM 33.7911 -85.3836 279° West 426 490 24,600 1,500 Climbing Atlanta Center
Fri 01:01:32 PM 33.8208 -85.5317 284° West 439 505 26,000 1,350 Climbing Atlanta Center
Fri 01:02:32 PM 33.8481 -85.6772 283° West 454 522 27,300 1,200 Climbing Atlanta Center
Fri 01:03:32 PM 33.8919 -85.8156 291° West 448 516 28,400 1,250 Climbing Atlanta Center
Fri 01:04:32 PM 33.9400 -85.9592 292° West 448 516 29,800 1,550 Climbing Atlanta Center
Fri 01:05:32 PM 33.9836 -86.1006 290° West 448 516 31,500 1,400 Climbing Atlanta Center
Fri 01:06:32 PM 34.0228 -86.2444 288° West 448 516 32,600 1,100 Climbing Atlanta Center
Fri 01:07:32 PM 34.0619 -86.3883 288° West 448 516 33,700 700 Climbing Atlanta Center
Fri 01:08:32 PM 34.1008 -86.5300 288° West 448 516 34,000 150 Climbing Atlanta Center
Fri 01:09:32 PM 34.1419 -86.6692 290° West 448 516 34,000  Level Atlanta Center
Fri 01:10:07 PM 34.1664 -86.7575 289° West 451 519 34,000  Level Memphis Center
Fri 01:11:08 PM 34.2039 -86.8989 288° West 451 519 34,000  Level Memphis Center
Fri 01:12:07 PM 34.2406 -87.0256 289° West 444 511 34,000  Level Memphis Center
Fri 01:13:07 PM 34.2844 -87.1822 289° West 444 511 34,000  Level Memphis Center
Fri 01:14:07 PM 34.3236 -87.3367 287° West 463 533 34,000  Level Memphis Center
Fri 01:15:07 PM 34.3622 -87.4611 291° West 458 527 34,000  Level Memphis Center
Fri 01:16:08 PM 34.4008 -87.6033 288° West 453 521 34,000  Level Memphis Center
Fri 01:17:08 PM 34.4394 -87.7456 288° West 448 516 34,000  Level Memphis Center
Fri 01:18:07 PM 34.4778 -87.8881 288° West 448 516 34,000  Level Memphis Center
Fri 01:19:07 PM 34.5139 -88.0331 287° West 448 516 34,000  Level Memphis Center
Fri 01:20:08 PM 34.5497 -88.1608 289° West 448 516 34,000  Level Memphis Center
Fri 01:21:08 PM 34.5922 -88.3236 288° West 453 521 34,000  Level Memphis Center
Fri 01:22:08 PM 34.6300 -88.4692 288° West 453 521 34,000  Level Memphis Center
Fri 01:23:07 PM 34.6717 -88.6247 288° West 439 505 34,000  Level Memphis Center
Fri 01:24:07 PM 34.7072 -88.7681 287° West 439 505 34,000  Level Memphis Center
Fri 01:25:07 PM 34.7464 -88.9189 288° West 450 518 34,000  Level Memphis Center
Fri 01:26:07 PM 34.7836 -89.0650 287° West 458 527 34,000  Level Memphis Center
Fri 01:27:07 PM 34.8225 -89.2136 288° West 458 527 34,000  Level Memphis Center
Fri 01:28:07 PM 34.8614 -89.3600 288° West 451 519 34,000  Level Memphis Center
Fri 01:29:08 PM 34.9000 -89.5089 288° West 458 527 34,000  Level Memphis Center
Fri 01:30:07 PM 34.9386 -89.6606 287° West 464 534 34,000  Level Memphis Center
Fri 01:31:07 PM 34.9831 -89.8172 289° West 469 540 34,000  Level Memphis Center
Fri 01:32:07 PM 35.0150 -89.9692 284° West 481 554 34,000  Level Memphis Center
Fri 01:33:07 PM 35.0197 -90.1239 272° West 466 536 34,000  Level Memphis Center
Fri 01:34:07 PM 35.0156 -90.2811 268° West 460 529 34,000  Level Memphis Center
Fri 01:35:07 PM 35.0136 -90.4306 269° West 460 529 34,000  Level Memphis Center
Fri 01:36:07 PM 35.0114 -90.5778 269° West 443 510 34,000  Level Memphis Center
Fri 01:37:07 PM 35.0111 -90.7272 270° West 438 504 34,000  Level Memphis Center
Fri 01:38:07 PM 35.0083 -90.8592 269° West 438 504 34,000  Level Memphis Center
Fri 01:39:07 PM 35.0078 -91.0136 270° West 448 516 34,000  Level Memphis Center
Fri 01:40:07 PM 35.0047 -91.1633 269° West 448 516 34,000  Level Memphis Center
Fri 01:41:07 PM 35.0036 -91.3153 270° West 454 522 34,000  Level Memphis Center
Fri 01:42:07 PM 34.9981 -91.4800 268° West 454 522 34,000  Level Memphis Center
Fri 01:43:07 PM 34.9967 -91.6322 269° West 449 517 34,000  Level Memphis Center
Fri 01:44:08 PM 34.9931 -91.7842 268° West 449 517 34,000  Level Memphis Center
Fri 01:45:07 PM 34.9892 -91.9336 268° West 449 517 34,000  Level Memphis Center
Fri 01:46:07 PM 34.9872 -92.0831 269° West 455 524 34,000  Level Memphis Center
Fri 01:47:08 PM 34.9828 -92.2353 268° West 450 518 34,000  Level Memphis Center
Fri 01:48:07 PM 34.9806 -92.3847 269° West 450 518 34,000  Level Memphis Center
Fri 01:49:07 PM 34.9758 -92.5367 268° West 450 518 34,000  Level Memphis Center
Fri 01:50:07 PM 34.9711 -92.6836 268° West 450 518 34,000 -350 Level Memphis Center
Fri 01:51:07 PM 34.9661 -92.8353 268° West 445 512 33,300 -700 Descending Memphis Center
Fri 01:52:07 PM 34.9608 -92.9872 268° West 445 512 32,600 -650 Descending Memphis Center
Fri 01:53:07 PM 34.9578 -93.1392 269° West 445 512 32,000 -300 Descending Memphis Center
Fri 01:54:07 PM 34.9542 -93.2911 268° West 450 518 32,000  Level Memphis Center
Fri 01:55:07 PM 34.9483 -93.4428 267° West 456 525 32,000  Level Memphis Center
Fri 01:56:07 PM 34.9425 -93.5972 267° West 456 525 32,000  Level Memphis Center
Fri 01:57:07 PM 34.9383 -93.7542 268° West 456 525 32,000  Level Memphis Center
Fri 01:58:07 PM 34.9319 -93.9058 267° West 456 525 32,000  Level Memphis Center
Fri 01:59:07 PM 34.9281 -94.0425 268° West 456 525 32,000  Level Memphis Center
Fri 02:00:07 PM 34.9211 -94.1967 267° West 456 525 32,000  Level Memphis Center
Fri 02:01:07 PM 34.9164 -94.3508 268° West 456 525 32,000  Level Memphis Center
Fri 02:01:55 PM 34.9133 -94.4839 268° West 462 532 32,000  Level Fort Worth Center
Fri 02:02:55 PM 34.9061 -94.6261 266° West 457 526 32,000  Level Fort Worth Center
Fri 02:03:55 PM 34.8989 -94.7831 267° West 464 534 32,000  Level Fort Worth Center
Fri 02:04:55 PM 34.8919 -94.9428 267° West 469 540 32,000  Level Fort Worth Center
Fri 02:05:54 PM 34.8842 -95.0925 266° West 464 534 32,000  Level Fort Worth Center
Fri 02:06:55 PM 34.8767 -95.2494 267° West 464 534 32,000  Level Fort Worth Center
Fri 02:07:55 PM 34.8686 -95.3992 266° West 457 526 32,000  Level Fort Worth Center
Fri 02:08:54 PM 34.8567 -95.5714 265° West 462 532 32,000  Level Fort Worth Center
Fri 02:09:55 PM 34.8506 -95.7233 267° West 462 532 32,000  Level Fort Worth Center
Fri 02:10:55 PM 34.8586 -95.8775 274° West 462 532 32,000  Level Fort Worth Center
Fri 02:11:55 PM 34.8814 -96.0264 281° West 456 525 32,000  Level Fort Worth Center
Fri 02:12:55 PM 34.9017 -96.1781 279° West 456 525 32,000  Level Fort Worth Center
Fri 02:13:55 PM 34.9239 -96.3272 280° West 461 531 32,000  Level Fort Worth Center
Fri 02:14:55 PM 34.9461 -96.4764 280° West 461 531 32,000 100 Level Fort Worth Center
Fri 02:15:55 PM 34.9658 -96.6281 279° West 461 531 32,200  Climbing Fort Worth Center
Fri 02:16:55 PM 34.9853 -96.7750 279° West 461 531 32,000 -100 Descending Fort Worth Center
Fri 02:17:55 PM 35.0047 -96.9244 279° West 455 524 32,000  Level Fort Worth Center
Fri 02:18:54 PM 35.0242 -97.0764 280° West 455 524 32,000  Level Fort Worth Center
Fri 02:19:00 PM 35.0203 -97.0791 280° West  Level FlightAware Approximate
Fri 02:19:55 PM 35.0475 -97.2283 281° West 455 524 32,000  Level Fort Worth Center
Fri 02:20:54 PM 35.0664 -97.3856 278° West 455 524 32,000  Level Fort Worth Center
Fri 02:21:54 PM 35.0869 -97.5378 279° West 467 537 32,000  Level Fort Worth Center
Fri 02:22:55 PM 35.1036 -97.6622 279° West 467 537 32,000  Level Fort Worth Center
Fri 02:23:55 PM 35.1261 -97.8297 279° West 467 537 32,000  Level Fort Worth Center
Fri 02:24:55 PM 35.1464 -97.9847 279° West 467 537 32,000  Level Fort Worth Center
Fri 02:25:55 PM 35.1664 -98.1347 279° West 462 532 32,000  Level Fort Worth Center
Fri 02:26:55 PM 35.1861 -98.2900 279° West 462 532 32,000  Level Fort Worth Center
Fri 02:27:55 PM 35.2039 -98.4425 278° West 462 532 32,000  Level Fort Worth Center
Fri 02:28:55 PM 35.2253 -98.6028 279° West 456 525 32,000  Level Fort Worth Center
Fri 02:29:55 PM 35.2406 -98.7556 277° West 462 532 32,000  Level Fort Worth Center
Fri 02:30:55 PM 35.2597 -98.9086 279° West 457 526 32,000  Level Fort Worth Center
Fri 02:31:55 PM 35.2747 -99.0308 279° West 457 526 32,000  Level Fort Worth Center
Fri 02:32:55 PM 35.2933 -99.1992 278° West 457 526 32,000 200 Level Fort Worth Center
Fri 02:33:55 PM 35.3119 -99.3522 279° West 457 526 32,400 873 Climbing Fort Worth Center
Fri 02:34:45 PM 35.3264 -99.4664 279° West 453 521 33,600 1,568 Climbing Albuquerque Center
Fri 02:35:46 PM 35.3447 -99.6503 277° West 451 519 35,300 1,171 Climbing Albuquerque Center
Fri 02:36:48 PM 35.3389 -99.7975 267° West 435 501 36,000 339 Climbing Albuquerque Center
Fri 02:37:50 PM 35.3319 -99.9450 267° West 433 498 36,000  Level Albuquerque Center
Fri 02:38:52 PM 35.3242 -100.0939 267° West 435 501 36,000  Level Albuquerque Center
Fri 02:39:00 PM 35.3113 -100.1112 267° West  Level FlightAware Approximate
Fri 02:39:53 PM 35.3169 -100.2447 267° West 440 506 36,000  Level Albuquerque Center
Fri 02:40:55 PM 35.3097 -100.3950 267° West 442 509 36,000  Level Albuquerque Center
Fri 02:41:57 PM 35.3022 -100.5453 267° West 441 507 36,000  Level Albuquerque Center
Fri 02:42:59 PM 35.2950 -100.7025 267° West 440 506 36,000  Level Albuquerque Center
Fri 02:44:00 PM 35.2796 -100.8471 263° West  Level FlightAware Approximate
Fri 02:46:04 PM 35.2678 -101.1719 268° West 433 498 36,000  Level Albuquerque Center
Fri 02:47:06 PM 35.2594 -101.3175 266° West 431 496 36,000  Level Albuquerque Center
Fri 02:48:08 PM 35.2547 -101.4617 268° West 435 501 36,000  Level Albuquerque Center
Fri 02:49:10 PM 35.2428 -101.6067 264° West 431 496 36,000  Level Albuquerque Center
Fri 02:50:12 PM 35.2317 -101.7619 265° West 432 497 36,000  Level Albuquerque Center
Fri 02:51:00 PM 35.2279 -101.8408 268° West  Level FlightAware Approximate
Fri 02:51:14 PM 35.2303 -101.9106 269° West 433 498 36,000  Level Albuquerque Center
Fri 02:52:16 PM 35.2253 -102.0653 268° West 434 499 36,000  Level Albuquerque Center
Fri 02:53:18 PM 35.2211 -102.2122 268° West 434 499 36,000  Level Albuquerque Center
Fri 02:54:19 PM 35.2172 -102.3583 268° West 432 497 36,000  Level Albuquerque Center
Fri 02:55:21 PM 35.2117 -102.5350 268° West 434 499 36,000  Level Albuquerque Center
Fri 02:56:23 PM 35.2078 -102.6825 268° West 435 501 36,000  Level Albuquerque Center
Fri 02:57:25 PM 35.2036 -102.8289 268° West 434 499 36,000  Level Albuquerque Center
Fri 02:58:27 PM 35.1994 -102.9753 268° West 435 501 36,000  Level Albuquerque Center
Fri 02:59:30 PM 35.1944 -103.1244 268° West 435 501 36,000  Level Albuquerque Center
Fri 03:00:31 PM 35.1894 -103.2722 268° West 433 498 36,000  Level Albuquerque Center
Fri 03:01:33 PM 35.1831 -103.4447 267° West 432 497 36,000  Level Albuquerque Center
Fri 03:02:35 PM 35.1778 -103.5919 268° West 431 496 36,000  Level Albuquerque Center
Fri 03:03:37 PM 35.1717 -103.7381 267° West 428 493 36,000  Level Albuquerque Center
Fri 03:04:39 PM 35.1650 -103.8822 267° West 423 487 36,000  Level Albuquerque Center
Fri 03:05:41 PM 35.1600 -104.0225 268° West 423 487 36,000  Level Albuquerque Center
Fri 03:06:43 PM 35.1539 -104.1653 267° West 423 487 36,000  Level Albuquerque Center
Fri 03:07:45 PM 35.1483 -104.3053 267° West 417 480 36,000  Level Albuquerque Center
Fri 03:08:47 PM 35.1403 -104.4750 267° West 417 480 36,000  Level Albuquerque Center
Fri 03:09:49 PM 35.1325 -104.6072 266° West 414 476 36,000  Level Albuquerque Center
Fri 03:10:51 PM 35.1256 -104.7467 267° West 410 472 36,000  Level Albuquerque Center
Fri 03:11:53 PM 35.1192 -104.8864 267° West 409 471 36,000  Level Albuquerque Center
Fri 03:12:55 PM 35.1114 -105.0481 267° West 406 467 36,000  Level Albuquerque Center
Fri 03:13:57 PM 35.1064 -105.1869 268° West 406 467 36,000  Level Albuquerque Center
Fri 03:14:59 PM 35.1011 -105.3253 267° West 405 466 36,000  Level Albuquerque Center
Fri 03:16:01 PM 35.0969 -105.4614 268° West 401 461 36,000  Level Albuquerque Center
Fri 03:17:03 PM 35.0925 -105.5983 268° West 400 460 36,000  Level Albuquerque Center
Fri 03:18:05 PM 35.0878 -105.7367 268° West 402 463 36,000  Level Albuquerque Center
Fri 03:19:07 PM 35.0819 -105.8736 267° West 401 461 36,000  Level Albuquerque Center
Fri 03:20:09 PM 35.0786 -106.0133 268° West 403 464 36,000  Level Albuquerque Center
Fri 03:21:11 PM 35.0719 -106.1489 267° West 403 464 36,000  Level Albuquerque Center
Fri 03:22:13 PM 35.0664 -106.2869 267° West 405 466 36,000  Level Albuquerque Center
Fri 03:23:15 PM 35.0606 -106.4525 268° West 408 470 36,000  Level Albuquerque Center
Fri 03:24:16 PM 35.0531 -106.5867 266° West 417 480 36,000  Level Albuquerque Center
Fri 03:25:18 PM 35.0456 -106.7431 267° West 417 480 36,000  Level Albuquerque Center
Fri 03:26:20 PM 35.0417 -106.8744 268° West 408 470 36,000  Level Albuquerque Center
Fri 03:27:22 PM 35.0394 -107.0294 269° West 407 468 36,000  Level Albuquerque Center
Fri 03:28:24 PM 35.0369 -107.1592 269° West 401 461 36,000  Level Albuquerque Center
Fri 03:29:26 PM 35.0306 -107.3014 267° West 417 480 36,000  Level Albuquerque Center
Fri 03:30:28 PM 35.0264 -107.4394 268° West 412 474 36,000  Level Albuquerque Center
Fri 03:31:30 PM 35.0231 -107.5775 268° West 410 472 36,000  Level Albuquerque Center
Fri 03:32:32 PM 35.0175 -107.7436 268° West 408 470 36,000  Level Albuquerque Center
Fri 03:33:34 PM 35.0142 -107.8717 268° West 410 472 36,000  Level Albuquerque Center
Fri 03:34:36 PM 35.0089 -108.0244 268° West 405 466 36,000  Level Albuquerque Center
Fri 03:35:38 PM 35.0050 -108.1550 268° West 403 464 36,000  Level Albuquerque Center
Fri 03:36:40 PM 34.9997 -108.3078 268° West 402 463 36,000  Level Albuquerque Center
Fri 03:37:42 PM 34.9953 -108.4383 268° West 403 464 36,000  Level Albuquerque Center
Fri 03:38:44 PM 34.9894 -108.5908 267° West 403 464 36,000  Level Albuquerque Center
Fri 03:39:46 PM 34.9839 -108.7203 267° West 401 461 36,000  Level Albuquerque Center
Fri 03:40:48 PM 34.9781 -108.8717 267° West 399 459 36,000  Level Albuquerque Center
Fri 03:41:50 PM 34.9728 -109.0025 267° West 401 461 36,000  Level Albuquerque Center
Fri 03:42:52 PM 34.9681 -109.1322 267° West 401 461 36,000  Level Albuquerque Center
Fri 03:43:54 PM 34.9589 -109.2836 266° West 400 460 36,000  Level Albuquerque Center
Fri 03:44:55 PM 34.9494 -109.4119 265° West 398 458 36,000  Level Albuquerque Center
Fri 03:45:57 PM 34.9400 -109.5644 266° West 402 463 36,000  Level Albuquerque Center
Fri 03:46:59 PM 34.9314 -109.6914 265° West 397 457 36,000  Level Albuquerque Center
Fri 03:48:01 PM 34.9208 -109.8394 265° West 394 453 36,000  Level Albuquerque Center
Fri 03:49:03 PM 34.9136 -109.9669 266° West 392 451 36,000  Level Albuquerque Center
Fri 03:50:05 PM 34.9022 -110.1142 265° West 389 448 36,000  Level Albuquerque Center
Fri 03:51:06 PM 34.8914 -110.2369 264° West 385 443 36,000  Level Albuquerque Center
Fri 03:52:08 PM 34.8811 -110.3644 264° West 390 449 36,000  Level Albuquerque Center
Fri 03:53:10 PM 34.8694 -110.5142 265° West 393 452 36,000  Level Albuquerque Center
Fri 03:54:12 PM 34.8586 -110.6414 264° West 394 453 36,000  Level Albuquerque Center
Fri 03:55:14 PM 34.8486 -110.7656 264° West 388 447 36,000  Level Albuquerque Center
Fri 03:56:15 PM 34.8356 -110.9203 264° West 391 450 36,000  Level Albuquerque Center
Fri 03:57:17 PM 34.8242 -111.0497 264° West 389 448 36,000  Level Albuquerque Center
Fri 03:58:19 PM 34.8153 -111.1847 265° West 395 455 36,000  Level Albuquerque Center
Fri 03:59:21 PM 34.8053 -111.3119 265° West 385 443 36,000  Level Albuquerque Center
Fri 04:00:23 PM 34.7942 -111.4417 264° West 386 444 36,000  Level Albuquerque Center
Fri 04:01:25 PM 34.7831 -111.5700 264° West 385 443 36,000  Level Albuquerque Center
Fri 04:02:26 PM 34.7692 -111.7247 264° West 389 448 36,000  Level Albuquerque Center
Fri 04:03:28 PM 34.7575 -111.8569 264° West 389 448 36,000  Level Albuquerque Center
Fri 04:04:30 PM 34.7461 -111.9939 264° West 402 463 36,000  Level Albuquerque Center
Fri 04:05:32 PM 34.7333 -112.1303 264° West 407 468 36,000  Level Albuquerque Center
Fri 04:06:34 PM 34.7208 -112.2667 264° West 408 470 36,000  Level Albuquerque Center
Fri 04:07:36 PM 34.7072 -112.4281 264° West 407 468 36,000  Level Albuquerque Center
Fri 04:08:38 PM 34.6933 -112.5619 263° West 404 465 36,000  Level Albuquerque Center
Fri 04:09:39 PM 34.6769 -112.6964 262° West 403 464 36,000  Level Albuquerque Center
Fri 04:10:41 PM 34.6611 -112.8306 262° West 402 463 36,000  Level Albuquerque Center
Fri 04:11:43 PM 34.6450 -112.9647 262° West 402 463 36,000  Level Albuquerque Center
Fri 04:12:45 PM 34.6294 -113.0997 262° West 403 464 36,000  Level Albuquerque Center
Fri 04:13:47 PM 34.6119 -113.2358 261° West 406 467 36,000  Level Albuquerque Center
Fri 04:14:49 PM 34.5922 -113.3967 262° West 405 466 36,000  Level Albuquerque Center
Fri 04:15:51 PM 34.5761 -113.5336 262° West 407 468 36,000  Level Albuquerque Center
Fri 04:16:53 PM 34.5567 -113.6681 260° West 407 468 36,000  Level Albuquerque Center
Fri 04:17:54 PM 34.5297 -113.8014 256° West 405 466 36,000  Level Albuquerque Center
Fri 04:18:56 PM 34.5031 -113.9319 256° West 403 464 36,000  Level Albuquerque Center
Fri 04:19:58 PM 34.4736 -114.0686 255° West 406 467 36,000  Level Albuquerque Center
Fri 04:21:00 PM 34.4414 -114.2289 256° West 409 471 36,000  Level Albuquerque Center
Fri 04:22:02 PM 34.4139 -114.3611 256° West 406 467 36,000  Level Albuquerque Center
Fri 04:23:04 PM 34.3869 -114.4939 256° West 406 467 36,000  Level Albuquerque Center
Fri 04:24:21 PM 34.3572 -114.6397 256° West 408 470 36,000 -214 Level Los Angeles Center
Fri 04:25:24 PM 34.3236 -114.7981 256° West 408 470 35,500 -672 Descending Los Angeles Center
Fri 04:26:26 PM 34.2956 -114.9328 256° West 414 476 34,600 -1,065 Descending Los Angeles Center
Fri 04:27:28 PM 34.2667 -115.0650 255° West 409 471 33,300 -1,403 Descending Los Angeles Center
Fri 04:28:30 PM 34.2319 -115.2278 256° West 417 480 31,700 -1,403 Descending Los Angeles Center
Fri 04:29:32 PM 34.2025 -115.3644 255° West 422 486 30,400 -1,306 Descending Los Angeles Center
Fri 04:30:34 PM 34.1722 -115.5047 255° West 430 495 29,000 -1,200 Descending Los Angeles Center
Fri 04:31:37 PM 34.1408 -115.6431 255° West 431 496 27,900 -480 Descending Los Angeles Center
Fri 04:32:39 PM 34.1111 -115.7833 256° West 433 498 28,000 44 Climbing Los Angeles Center
Fri 04:33:53 PM 34.0892 -115.9253 259° West 433 498 28,000  Level Los Angeles Center
Fri 04:34:55 PM 34.0597 -116.1275 260° West 438 504 28,000  Level Los Angeles Center
Fri 04:35:57 PM 34.0378 -116.2700 260° West 436 502 28,000 -435 Level Los Angeles Center
Fri 04:36:59 PM 34.0172 -116.4108 260° West 429 494 27,100 -960 Descending Los Angeles Center
Fri 04:38:02 PM 33.9997 -116.5481 261° West 420 483 26,000 -1,296 Descending Los Angeles Center
Fri 04:39:04 PM 33.9892 -116.6844 265° West 413 475 24,400 -2,371 Descending Los Angeles Center
Fri 04:40:06 PM 33.9772 -116.8478 265° West 410 472 21,100 -3,091 Descending Los Angeles Center
Fri 04:40:43 PM 33.9667 -116.9333 262° West 390 449 19,300 -2,374 Descending Southern California TRACON
Fri 04:41:37 PM 33.9667 -117.0500 270° West 388 447 17,500 -1,565 Descending Southern California TRACON
Fri 04:42:38 PM 33.9500 -117.1667 260° West 365 420 16,300 -1,488 Descending Southern California TRACON
Fri 04:43:38 PM 33.9333 -117.2833 260° West 364 419 14,500 -1,450 Descending Southern California TRACON
Fri 04:44:38 PM 33.9500 -117.4000 280° West 356 410 13,400 -950 Descending Southern California TRACON
Fri 04:45:38 PM 33.9833 -117.5000 292° West 305 351 12,600 -1,095 Descending Southern California TRACON
Fri 04:46:44 PM 34.0167 -117.6167 289° West 335 386 11,100 -1,289 Descending Southern California TRACON
Fri 04:47:39 PM 34.0000 -117.7000 256° West 276 318 10,000 -1,148 Descending Southern California TRACON
Fri 04:48:39 PM 34.0000 -117.7833 270° West 276 318 8,900 -1,050 Descending Southern California TRACON
Fri 04:49:39 PM 33.9833 -117.8833 259° West 275 316 7,900 -1,190 Descending Southern California TRACON
Fri 04:50:45 PM 33.9833 -117.9833 270° West 275 316 6,400 -1,339 Descending Southern California TRACON
Fri 04:51:40 PM 33.9667 -118.0667 256° West 273 314 5,200 -1,075 Descending Southern California TRACON
Fri 04:52:31 PM 33.9658 -118.1264 269° West 265 305 4,500 -903 Descending Los Angeles Center
Fri 04:53:33 PM 33.9586 -118.1981 263° West 230 265 3,500 -968 Descending Los Angeles Center

Login

Don't have an account? Register now (free) for customized features, flight alerts, and more!